Theta_e
293 293 293 293 293 293 293 292 292 292 292 291 291 292 291 292 289 291 291 290 290 290 289 288 288 288 288 287 286 286 286 286 286 285 284 284 283 283 283 282 281 281
294 294 293 293 293 293 293 293 293 292 292 292 292 291 291 289 289 290 290 290 289 289 288 288 288 288 287 286 286 286 285 285 285 285 284 283 283 282 283 282 281 280
293 293 293 293 294 293 293 293 293 293 292 292 291 291 292 289 289 288 289 289 289 288 288 288 287 287 287 286 286 285 285 284 284 283 284 283 283 282 282 281 281 280
293 293 294 294 293 293 293 292 292 292 291 291 291 292 291 291 289 288 288 288 288 287 287 287 287 287 286 286 285 285 284 284 284 283 283 283 282 282 282 281 281 280
292 293 292 293 293 293 292 292 292 292 291 292 291 289 290 289 288 287 287 287 287 287 287 287 286 286 285 285 284 284 284 284 282 282 283 282 282 282 281 281 280 280
290 291 291 292 292 292 292 291 292 291 291 289 291 290 289 288 288 288 287 287 286 287 286 285 285 284 284 284 284 284 283 283 282 281 282 282 281 281 281 281 280 280
290 290 290 290 289 289 290 290 290 290 290 290 287 287 287 286 286 287 286 286 286 285 285 285 285 284 284 284 283 283 282 282 281 281 281 281 280 280 280 280 280 279
289 288 288 288 287 288 288 289 288 288 288 285 286 288 284 285 285 285 284 285 284 284 284 284 284 283 282 283 283 282 282 282 281 281 281 280 280 280 279 280 279 279
287 287 286 285 285 287 286 287 287 287 285 286 286 286 283 283 284 283 283 282 282 283 282 282 283 282 282 282 283 283 282 281 281 280 280 280 279 280 279 279 278 278
286 285 284 285 285 286 285 286 285 285 284 283 284 283 283 282 282 282 282 282 282 282 282 282 282 282 282 282 283 282 282 281 280 280 280 280 280 279 279 278 278 277
285 284 284 284 284 285 284 284 284 284 283 283 282 283 282 281 281 281 282 282 283 283 282 282 282 282 281 281 281 281 281 281 280 280 280 279 279 278 279 278 278 277
285 284 284 284 284 283 284 284 284 282 282 282 281 283 281 281 281 281 282 282 282 282 281 281 281 281 281 281 281 280 280 279 279 279 279 278 278 277 277 276 277 276
284 284 284 283 283 283 283 283 282 282 281 282 281 281 281 281 280 280 280 281 281 280 281 281 280 280 280 280 279 279 278 278 278 278 278 277 276 276 275 275 275 275
284 283 283 283 283 282 282 282 282 281 281 281 281 281 281 280 281 281 280 279 280 279 280 279 279 279 278 279 278 278 278 277 277 277 277 276 276 275 275 275 275 275
283 283 283 282 282 282 282 282 281 280 281 280 280 280 281 280 280 280 280 279 278 279 278 278 279 279 279 278 277 277 277 277 277 277 276 276 275 275 275 275 274 274
283 282 282 282 282 282 282 281 281 280 280 280 279 279 279 279 279 279 278 278 278 277 277 277 278 278 280 282 282 278 276 277 276 276 275 275 275 274 274 274 274 274
283 283 282 283 281 281 281 281 281 280 279 279 279 279 279 278 278 278 277 277 277 276 275 277 277 277 281 284 284 283 278 276 275 275 274 274 274 274 274 274 274 274
282 282 282 282 281 281 280 279 279 279 279 278 278 278 277 277 277 277 277 276 276 275 275 276 276 280 283 284 285 285 281 276 274 274 274 273 273 273 273 274 274 274
281 281 281 281 281 280 279 279 278 279 278 278 278 277 277 276 276 276 275 275 275 274 274 274 275 281 284 285 286 286 284 278 274 273 274 274 274 274 274 274 274 275
281 281 281 281 280 279 278 278 278 278 277 277 277 276 276 275 275 274 274 274 274 274 274 274 274 281 284 286 287 286 285 280 273 274 274 274 274 274 274 274 274 274
281 281 281 280 279 278 278 278 278 277 276 275 276 276 275 275 274 274 273 273 274 273 274 274 275 282 286 287 287 286 285 280 274 275 274 274 275 275 275 275 275 276
280 280 280 279 279 279 278 278 277 276 276 275 275 274 274 274 273 273 273 273 273 273 274 274 274 283 286 286 286 285 285 277 274 274 274 274 274 275 275 275 275 275
279 279 279 279 278 279 278 278 277 277 276 274 275 273 274 273 273 272 273 272 272 272 273 273 273 281 287 285 285 285 281 274 274 273 273 273 273 274 273 273 273 273
278 278 278 278 277 278 277 277 275 274 274 274 275 273 273 272 271 271 271 271 272 272 272 272 274 280 286 285 284 284 279 273 272 271 272 272 272 272 272 272 273 275
277 277 277 276 276 277 276 276 275 274 272 272 271 271 271 271 272 272 271 271 271 272 275 273 274 279 285 284 284 283 277 271 270 271 270 270 271 271 271 272 272 273
276 276 276 275 274 274 274 273 273 271 272 272 272 272 271 271 271 271 271 272 272 272 273 273 275 275 278 283 282 281 282 272 269 271 269 269 268 270 270 271 272 272
Wind_Speed
8 6 8 8 8 7 7 7 7 8 8 6 7 7 8 6 4 6 7 6 6 6 6 6 6 6 7 6 6 7 7 8 7 6 7 7 6 6 7 6 5 6
9 8 7 7 7 6 7 7 8 7 8 7 7 7 5 4 5 5 7 7 6 7 6 6 7 7 7 7 7 8 7 6 7 3 6 7 7 6 7 7 6 5
7 7 8 9 9 9 9 7 7 7 7 7 6 5 7 4 5 5 6 6 7 7 7 7 7 7 8 7 7 7 7 6 7 5 6 8 6 7 6 6 5 7
7 8 8 9 8 9 8 7 6 7 6 6 7 6 5 5 5 6 6 7 7 7 7 7 9 8 7 7 6 6 6 7 7 6 7 5 6 6 6 5 5 5
7 7 7 8 7 7 6 6 7 7 7 8 5 5 6 6 6 6 7 8 8 8 7 8 6 6 5 6 6 7 6 7 5 5 6 6 5 6 5 5 6 6
5 6 6 6 7 7 7 7 8 7 7 6 9 6 6 6 7 7 7 8 7 7 6 5 5 5 6 6 6 6 6 6 5 5 6 6 5 4 4 6 6 7
7 5 6 6 6 5 6 7 6 6 6 7 4 5 5 5 5 6 6 6 6 6 6 6 6 6 5 5 5 5 5 5 5 6 7 6 5 6 5 6 7 7
6 5 5 5 5 5 6 6 6 6 6 4 5 6 4 5 5 5 4 5 5 5 5 5 4 5 4 5 6 6 6 5 6 7 7 7 6 7 7 6 6 7
5 5 4 5 5 6 5 6 6 5 4 4 5 5 3 4 5 4 4 4 4 4 4 4 5 5 5 7 7 8 8 7 7 8 8 8 8 8 7 6 5 5
5 5 5 5 5 5 5 6 5 5 4 4 4 3 4 4 3 3 3 4 4 4 5 5 6 6 6 7 8 8 8 8 7 7 7 8 8 7 6 6 7 6
6 5 5 5 5 5 5 5 5 4 4 4 4 4 4 3 3 3 4 4 6 6 6 6 6 5 5 5 5 6 7 7 7 7 7 7 7 7 7 7 6 6
6 6 6 6 6 5 6 5 5 4 4 4 3 4 3 3 4 3 4 4 4 4 4 4 4 4 5 6 6 5 5 5 5 6 6 7 6 6 5 5 5 5
7 6 6 6 6 6 5 5 4 4 4 4 3 3 3 4 3 3 3 4 4 4 4 4 4 4 4 4 4 4 5 5 5 5 5 5 4 4 4 4 4 4
6 6 6 6 5 5 4 4 4 4 4 3 2 3 4 4 4 4 3 3 4 4 4 3 4 4 4 4 5 5 5 5 5 5 4 4 4 4 4 4 4 4
6 5 5 5 5 5 5 5 4 4 3 3 2 3 3 3 2 2 2 3 2 3 3 3 4 5 4 4 5 4 4 5 5 5 5 5 4 3 2 2 2 3
6 5 5 5 5 5 5 4 4 4 3 3 3 3 3 1 1 1 2 3 3 2 2 2 3 3 4 7 7 6 5 5 4 4 4 4 4 3 2 2 3 3
6 6 5 6 5 5 5 4 4 3 3 3 3 2 2 1 1 1 2 2 2 3 3 3 3 3 6 9 10 9 5 4 5 4 3 3 3 3 4 3 2 2
6 5 5 6 5 5 4 4 3 3 3 2 2 2 1 0 1 2 1 1 1 2 3 3 3 4 7 9 9 10 8 5 4 4 4 3 3 3 3 2 3 2
5 5 5 5 5 5 4 4 3 3 3 3 3 1 0 1 2 1 2 1 2 3 3 3 2 4 7 8 9 9 9 6 4 3 3 3 2 2 2 2 2 3
5 5 5 5 5 5 4 4 3 3 3 2 1 0 0 1 1 1 1 1 1 2 2 1 2 3 6 7 7 7 8 6 3 3 2 2 2 1 1 2 2 3
6 5 5 5 5 4 4 4 3 3 3 2 1 1 1 1 2 2 1 1 1 1 1 1 1 3 4 6 7 7 8 6 3 2 1 1 0 0 1 2 2 3
5 5 5 5 5 5 5 5 4 3 4 3 1 1 0 0 0 0 0 0 0 1 1 0 0 2 3 6 6 6 7 4 3 1 0 1 2 2 1 2 3 3
5 5 5 5 5 5 5 5 5 5 4 1 1 1 1 1 0 1 0 1 1 1 1 0 0 1 3 5 5 6 5 2 2 1 1 2 3 2 2 3 4 4
5 4 5 5 5 5 5 4 4 3 2 1 1 1 2 2 1 3 3 2 1 0 0 1 1 2 5 5 5 5 5 2 1 1 2 2 3 3 3 4 5 9
5 5 5 5 5 5 4 5 4 3 2 2 3 3 3 3 3 5 4 4 3 3 5 4 3 4 6 5 4 5 4 2 1 0 2 4 4 5 5 5 6 7
5 5 5 5 5 5 5 5 3 3 5 4 5 5 5 5 5 6 6 5 4 5 5 4 4 4 4 5 4 3 3 2 1 0 3 4 4 4 5 6 6 6
Wind_Direction
241 237 243 243 246 242 252 249 243 242 244 240 233 236 226 235 210 208 217 217 217 212 208 203 198 202 205 202 203 204 205 210 213 200 202 199 212 201 206 202 199 196
244 241 244 247 256 248 244 234 243 233 245 237 236 241 241 225 219 207 214 217 215 217 205 204 203 204 203 203 202 204 210 207 215 186 200 201 208 199 211 199 198 195
251 249 244 243 244 246 244 242 237 240 239 242 241 237 243 218 223 212 218 214 214 215 209 205 207 207 205 206 201 205 206 203 210 191 197 205 196 201 208 191 197 193
249 242 243 245 245 249 246 246 246 244 245 250 239 236 229 228 214 213 216 213 214 214 211 206 210 207 205 204 195 206 206 209 203 183 200 200 202 197 198 187 197 199
248 250 244 245 247 246 245 242 246 243 239 240 247 237 226 223 215 213 210 214 210 215 208 214 209 210 199 198 194 204 204 209 197 185 195 206 203 192 195 181 194 202
266 253 253 246 244 241 241 238 241 242 243 244 238 229 223 219 216 216 213 214 214 213 214 213 209 207 194 199 194 208 199 202 198 183 197 204 200 198 187 192 193 202
275 272 264 257 260 250 248 250 251 247 248 245 261 245 231 228 223 223 220 217 212 210 210 209 205 205 197 192 196 205 200 197 183 190 196 201 185 201 201 195 199 202
288 286 276 277 266 263 255 257 256 251 251 268 248 255 219 229 224 226 217 212 208 213 212 210 205 204 190 185 196 200 202 188 188 190 197 196 189 202 202 204 198 200
300 295 298 288 279 272 266 262 261 262 259 250 253 257 232 219 225 215 213 200 208 210 207 207 202 198 191 191 200 200 199 196 190 191 195 195 198 206 203 199 199 203
315 311 314 302 289 278 276 272 270 269 266 250 253 250 233 236 205 203 188 189 202 205 203 203 199 199 195 199 202 200 199 199 192 196 199 200 199 202 202 197 203 201
324 326 322 313 299 292 282 280 277 273 264 246 247 238 229 209 211 186 194 193 208 211 209 207 209 199 198 204 208 204 203 198 198 196 200 202 202 202 200 199 200 204
328 331 327 315 305 299 291 289 287 277 272 266 232 247 241 225 219 213 208 219 221 222 216 218 211 199 204 206 206 201 202 203 198 199 198 200 203 204 198 197 194 202
329 325 321 316 312 304 303 302 295 288 278 267 259 241 241 241 233 225 231 217 229 218 220 215 208 203 204 207 202 196 195 194 197 200 202 202 209 204 197 192 197 197
325 321 319 313 310 307 302 295 293 288 274 273 256 239 238 237 230 222 237 208 229 219 227 203 198 200 204 199 196 192 191 196 193 194 197 204 203 206 196 198 199 202
317 318 316 315 314 313 311 308 302 293 291 282 259 261 256 252 248 218 219 234 240 224 219 200 201 212 202 195 189 194 190 192 190 191 191 195 200 207 210 207 211 216
324 324 328 325 331 327 317 312 311 311 307 295 283 278 279 284 239 212 210 228 237 243 222 207 223 216 209 200 191 184 188 188 183 189 186 187 191 201 228 220 226 228
338 336 335 337 330 324 323 327 323 320 313 305 304 300 294 300 212 233 241 232 221 221 225 226 226 222 209 207 200 188 175 175 177 177 173 176 185 189 220 236 256 248
338 335 340 333 339 333 328 322 324 332 322 318 315 316 326 31 239 254 252 236 223 220 230 233 236 225 215 210 201 188 171 165 159 162 168 180 181 197 207 215 248 270
341 343 337 339 338 331 330 337 350 340 329 325 313 306 37 247 275 282 273 238 205 223 243 246 235 233 217 209 200 183 166 149 155 150 160 176 172 183 198 223 249 279
343 346 345 340 335 337 343 345 346 320 311 300 304 23 51 294 320 273 282 224 222 229 246 256 238 245 219 204 179 160 154 131 130 132 138 151 170 197 219 244 252 262
348 350 350 345 343 346 349 354 340 325 333 328 333 286 280 278 268 280 281 240 228 186 183 226 286 271 197 139 134 133 128 108 105 99 106 154 226 206 258 262 276 269
350 350 355 355 354 353 1 352 348 338 323 332 4 18 38 89 43 155 193 143 111 129 132 162 328 302 127 119 121 128 110 91 103 110 136 328 335 1 313 283 266 265
348 355 360 359 355 3 359 354 350 344 340 357 30 24 14 15 359 24 59 117 109 108 128 72 17 321 113 114 123 118 90 85 82 72 15 351 318 319 293 282 283 273
349 360 6 357 5 6 353 347 342 338 337 339 10 352 6 1 43 56 36 51 85 80 99 97 40 27 106 108 118 111 102 97 71 50 339 322 305 303 303 301 284 283
354 2 7 2 8 2 4 7 0 350 344 36 48 68 45 37 44 61 45 29 38 50 58 73 59 46 78 88 84 89 87 94 108 68 312 301 308 302 303 288 290 288
4 4 7 13 1 5 16 15 353 24 29 53 42 53 57 45 50 58 58 34 29 47 43 51 65 35 37 54 70 50 110 113 122 117 289 285 291 283 293 293 285 286